Location: Caracas
(10.5033°N, 66.8422°W)
Time: 02:03:30
(UTC-04:00)

Envisat - Visible Passes

Search period start: 18 June 2018 00:00
Search period end: 28 June 2018 00:00
Orbit: 764 x 766 km, 98.2° (Epoch: 17 June)

Date Brightness Start Highest point End Pass type
(mag) Time Alt. Az. Time Alt. Az. Time Alt. Az.
18 Jun 4.5 19:08:54 10° ESE 19:12:20 19° ENE 19:15:46 10° NNE visible
18 Jun 4.8 20:47:20 12° SSW 20:51:03 27° W 20:55:16 10° NW visible
19 Jun 3.1 20:10:07 15° S 20:14:23 77° WSW 20:19:27 10° NNW visible
20 Jun 3.6 19:33:07 10° SE 19:37:46 37° ENE 19:42:25 10° N visible
20 Jun 5.6 21:14:27 10° SW 21:16:37 13° W 21:18:48 10° WNW visible
21 Jun 4.3 20:35:55 13° SSW 20:39:55 36° W 20:44:32 10° NW visible
22 Jun 2.9 19:58:43 13° SSE 20:03:15 79° ENE 20:08:19 10° N visible
23 Jun 4.0 19:22:23 10° SE 19:26:40 28° ENE 19:30:56 10° NNE visible
23 Jun 5.4 21:02:09 10° SW 21:05:28 18° W 21:08:47 10° WNW visible
24 Jun 3.8 20:24:30 13° S 20:28:46 49° WSW 20:33:39 10° NNW visible
25 Jun 3.1 19:47:18 11° SSE 19:52:08 58° ENE 19:57:05 10° N visible
26 Jun 4.3 19:11:50 10° ESE 19:15:34 21° ENE 19:19:17 10° NNE visible
26 Jun 5.0 20:50:19 10° SSW 20:54:18 24° W 20:58:19 10° NW visible
27 Jun 3.2 20:13:06 13° S 20:17:38 68° WSW 20:22:39 10° NNW visible
